This demonstration page uses our WeatherBlox Daily Observations layout. Learn more.

Left ArrowRight Arrow

Hourly Observations for April 9, 2021

Temp ( °F °C ) Dew Point ( °F °C ) Humidity (%) Winds ( mph kmh ) Pressure ( in mb ) Visibility ( mi km ) Precip ( " mm )
12:53 am 00:53 Clear 44 6.7 30 -1.1 58 58 SW 3 6 29.58 1002 10 16 0.00 0.00
1:53 am 01:53 Clear 44 6.7 29 -1.7 55 55 WSW 6 9 29.60 1003 10 16 0.00 0.00
2:53 am 02:53 Clear 42 5.6 29 -1.7 60 60 W 6 9 29.60 1003 10 16 0.00 0.00
3:53 am 03:53 Clear 43 6.1 30 -1.1 60 60 W 7 11 29.60 1002 10 16 0.00 0.00
4:53 am 04:53 Clear 41 5 30 -1.1 65 65 WSW 5 7 29.60 1003 10 16 0.00 0.00
5:53 am 05:53 Clear 40 4.4 29 -1.7 65 65 W 6 9 29.63 1004 10 16 0.00 0.00
6:53 am 06:53 Clear 36 2.2 29 -1.7 76 76 N 6 9 29.67 1005 10 16 0.00 0.00
7:53 am 07:53 Sunny 41 5 31 -0.6 67 67 NNW 14 22 29.70 1006 10 16 0.00 0.00
8:53 am 08:53 Sunny 47 8.3 35 1.7 63 63 N 22 35 29.72 1006 10 16 0.00 0.00
9:53 am 09:53 Sunny 53 11.7 36 2.2 52 52 N 15 24 29.74 1007 10 16 0.00 0.00
10:53 am 10:53 Partly Cloudy 55 12.8 37 2.8 51 51 NNW 15 24 29.76 1008 10 16 0.00 0.00
11:53 am 11:53 Mostly Cloudy 58 14.4 39 3.9 50 50 NW 21 33 29.80 1009 10 16 0.00 0.00
12:53 pm 12:53 Mostly Cloudy 56 13.3 38 3.3 51 51 NW 21 33 29.83 1010 10 16 0.00 0.00
1:53 pm 13:53 Mostly Sunny 54 12.2 37 2.8 53 53 NNW 24 39 29.86 1011 10 16 0.00 0.00
2:53 pm 14:53 Mostly Cloudy 50 10 40 4.4 68 68 NW 23 37 29.88 1012 10 16 0.00 0.00
3:53 pm 15:53 Cloudy with Light Rain 46 7.8 40 4.4 79 79 NW 22 35 29.90 1013 6 10 0.01 0.25
4:53 pm 16:53 Cloudy with Light Rain 45 7.2 41 5 86 86 NNW 17 28 29.91 1013 5 8 0.03 0.76
5:53 pm 17:53 Cloudy with Light Rain 44 6.7 39 3.9 83 83 NNW 20 31 29.91 1013 10 16 0.02 0.51
6:31 pm 18:31 Cloudy with Light Rain 44 6.7 40 4.4 85 85 NW 12 19 29.93 1014 10 16 0.00 0.00
6:53 pm 18:53 Cloudy with Light Rain 43 6.1 40 4.4 89 89 NW 14 22 29.93 1014 6 10 0.01 0.25
7:32 pm 19:32 Cloudy with Light Rain 42 5.6 39 3.9 89 89 NW 15 24 29.94 1014 10 16 0.02 0.51
7:53 pm 19:53 Cloudy with Light Rain 42 5.6 39 3.9 89 89 NW 15 24 29.92 1013 6 10 0.02 0.51
8:09 pm 20:09 Cloudy with Light Rain 42 5.6 39 3.9 89 89 NW 13 20 29.94 1014 10 16 0.01 0.25
8:53 pm 20:53 Cloudy with Light Rain 40 4.4 37 2.8 89 89 NW 21 33 29.92 1013 7 11 0.03 0.76
9:02 pm 21:02 Cloudy with Light Rain 39 3.9 37 2.8 93 93 NW 21 33 29.95 1014 6 10 0.01 0.25
9:35 pm 21:35 Cloudy with Rain 38 3.3 36 2.2 93 93 NNW 20 31 29.97 1015 6 10 0.06 1.52
9:53 pm 21:53 Cloudy with Rain 38 3.3 36 2.2 93 93 NW 17 28 29.93 1014 6 10 0.09 2.29
10:07 pm 22:07 Cloudy with Light Rain 37 2.8 35 1.7 93 93 NW 18 30 29.98 1015 7 11 0.02 0.51
10:20 pm 22:20 Cloudy with Light Rain 37 3 36 2 93 93 NW 17 28 29.98 1015 6 10 0.00 0.00
10:53 pm 22:53 Cloudy with Light Rain 37 2.8 35 1.7 93 93 NW 13 20 29.91 1013 6 10 0.10 2.54
11:40 pm 23:40 Cloudy with Light Rain 41 5 38 3.3 89 89 NNW 16 26 29.94 1014 7 11 0.05 1.27
11:53 pm 23:53 Cloudy with Rain 41 5 39 3.9 93 93 NNW 17 28 29.90 1012 6 10 0.08 2.03

Powered by AerisWeather